Wind_Speed
16 18 19 20 21 21 20 20 20 21 22 22 24 25 25 25 24 23 23 22 21 21 21 20 20 21 22 21 21 21 21 21 22 24 25 25 24 23 23 24 24 22
17 19 21 21 20 20 20 20 20 21 21 22 23 25 26 26 25 24 24 22 22 21 20 19 20 21 22 22 21 21 21 21 21 22 24 25 24 22 22 24 24 21
21 23 23 21 19 19 18 19 19 19 20 21 22 24 25 26 26 25 24 22 21 21 19 18 19 20 21 21 20 20 21 21 21 22 22 22 23 22 21 23 25 22
23 23 20 18 17 16 16 17 19 20 20 20 22 24 26 26 27 26 24 22 21 20 20 19 18 19 21 21 20 21 21 20 20 21 20 19 21 21 21 22 25 24
23 21 20 19 18 16 15 16 18 20 20 21 21 23 26 27 27 25 24 23 22 20 20 19 18 19 20 21 21 21 21 20 20 19 19 19 20 21 21 21 23 24
21 20 22 23 21 18 17 16 17 19 20 21 21 23 25 26 26 25 23 22 21 20 19 19 19 19 19 20 20 21 20 20 19 18 18 19 19 20 20 20 21 23
20 20 21 22 20 19 18 18 18 18 19 21 22 23 24 26 25 23 21 20 19 18 18 18 20 19 18 18 19 19 19 19 19 18 18 18 18 18 19 19 20 21
20 21 20 20 19 18 17 18 19 19 19 21 23 24 24 25 25 23 21 20 19 17 17 17 18 18 17 18 18 18 18 19 19 18 18 18 17 18 19 20 21 21
21 22 22 21 19 18 16 16 18 20 19 19 24 26 26 25 25 24 23 21 19 18 17 17 17 16 16 17 18 18 19 19 19 19 20 19 18 18 19 20 21 22
21 23 23 23 22 20 18 16 17 19 20 20 23 25 26 25 25 25 24 22 20 19 18 17 16 15 16 17 17 17 19 20 20 20 20 19 19 18 18 20 21 22
18 21 22 23 24 22 20 19 19 20 22 22 23 24 25 25 25 26 25 24 24 22 20 18 16 15 15 15 16 16 17 19 20 20 20 19 19 18 18 19 20 22
15 18 20 23 24 23 21 21 21 22 24 25 23 25 26 26 26 27 26 27 27 24 22 19 17 16 15 15 15 15 16 17 19 20 19 19 19 18 18 19 20 21
12 15 18 21 22 22 23 23 24 25 26 26 25 25 27 27 27 26 25 27 27 25 22 20 19 18 17 16 15 15 15 15 16 17 18 18 18 18 18 19 20 20
8 12 15 19 21 22 23 24 25 27 26 24 25 26 27 27 27 27 26 26 26 25 23 22 21 19 19 18 17 16 15 14 14 15 16 17 16 17 17 17 18 19
4 7 11 16 20 22 23 24 25 27 26 24 25 27 28 27 28 28 28 28 26 25 24 23 21 20 19 18 17 17 16 15 14 14 15 16 16 15 15 15 15 16
5 4 8 14 19 22 23 24 26 27 26 25 26 27 28 27 27 28 28 28 28 26 25 23 21 19 18 17 16 16 16 15 15 15 14 15 15 15 15 15 15 15
8 5 8 13 17 20 22 24 26 27 26 27 27 27 26 26 27 27 28 28 27 26 25 23 20 18 16 16 15 15 16 16 15 15 15 15 15 15 16 15 15 14
10 7 10 13 15 18 21 24 26 27 27 27 28 27 26 25 26 26 26 26 26 25 24 21 19 17 14 13 13 14 14 15 15 16 17 17 16 16 15 15 14 13
10 7 10 12 15 19 23 24 25 26 25 24 26 27 26 25 25 25 24 24 24 23 22 20 19 18 15 14 13 13 13 14 14 16 18 18 17 15 15 14 14 13
15 11 10 10 11 17 22 22 22 24 24 22 22 24 24 24 24 23 22 22 22 22 20 19 18 18 17 16 14 13 13 13 14 16 17 17 17 17 16 15 13 13
20 16 14 11 6 12 19 20 19 20 21 22 21 21 21 21 21 20 20 19 19 19 19 18 17 17 17 17 16 15 14 13 14 16 17 18 18 17 17 15 14 14
23 19 17 16 10 2 10 14 17 20 21 22 22 20 19 18 17 16 17 17 17 17 18 17 16 15 16 16 16 17 16 15 15 17 18 19 18 17 16 16 16 17
24 22 21 21 18 12 8 7 11 17 21 24 24 22 19 17 16 14 15 16 15 15 16 16 15 15 16 16 17 18 18 18 18 18 19 19 19 18 18 19 19 19
25 24 24 25 25 23 19 15 12 11 15 21 26 27 24 21 19 17 16 16 15 14 15 16 16 16 16 17 18 18 18 20 20 20 20 22 22 22 21 21 20 20
26 25 26 26 26 26 24 21 17 15 15 19 25 29 28 25 23 23 22 20 18 17 15 16 17 16 15 17 17 18 19 21 22 22 23 24 24 24 22 21 20 19
27 26 25 25 26 25 24 25 23 19 18 19 22 28 31 29 25 25 26 26 24 23 20 18 17 16 14 15 16 17 20 22 22 24 26 26 25 24 23 21 19 18
Wind_Direction
238 230 228 228 226 225 223 217 212 207 205 205 207 211 215 217 217 219 223 227 233 238 239 239 236 233 233 232 229 227 226 224 221 219 217 217 217 218 218 215 211 212
246 244 234 227 225 227 230 228 221 215 211 211 213 216 218 218 218 220 224 227 232 235 238 237 234 232 231 229 229 226 222 220 219 218 216 217 218 218 218 214 210 212
238 239 231 222 221 225 232 235 231 224 219 218 218 220 221 219 219 223 223 225 229 231 232 233 231 231 229 227 227 223 218 216 216 214 214 216 218 218 217 214 210 210
236 239 233 220 219 223 230 237 237 231 224 223 224 223 224 224 224 224 223 223 227 229 229 229 230 231 229 226 224 220 217 217 214 211 212 213 214 216 215 213 211 210
234 243 239 224 218 220 222 231 238 235 228 227 228 226 228 229 229 227 226 226 225 225 227 228 229 229 228 225 221 217 215 215 214 212 210 209 210 213 214 213 212 212
229 239 238 228 221 220 221 224 231 234 234 233 231 230 231 232 232 230 228 225 221 221 225 225 223 222 223 222 218 216 215 214 213 210 208 210 209 209 212 213 213 214
228 232 233 227 222 221 223 223 224 228 234 237 236 233 231 231 232 230 227 224 222 222 222 219 216 214 214 217 216 217 217 215 213 210 210 213 210 208 210 212 213 213
241 233 227 222 220 220 223 226 226 224 229 238 239 231 226 226 225 224 224 225 224 222 218 216 215 212 210 212 215 219 218 215 215 213 215 215 211 210 210 209 210 212
249 233 221 216 215 215 219 226 230 225 222 235 240 229 219 217 217 217 220 223 223 220 218 219 218 215 213 211 213 218 216 214 215 214 215 215 212 211 209 207 208 209
242 229 217 213 213 212 213 218 227 225 218 232 246 234 216 211 213 214 217 219 220 219 220 221 218 215 215 214 214 216 215 213 213 213 213 214 212 211 210 208 208 209
234 225 218 214 212 210 209 208 216 220 214 223 245 241 221 212 212 214 216 217 217 218 219 218 215 211 210 211 210 210 213 214 214 212 213 213 213 215 214 211 209 210
233 222 220 217 210 205 204 203 207 210 208 212 229 234 222 213 212 213 215 217 217 217 216 213 211 210 209 211 211 208 210 214 216 216 215 214 214 216 215 212 210 212
244 228 221 219 212 205 203 202 203 206 209 209 215 221 217 209 209 211 211 214 216 216 214 211 210 212 212 214 217 215 213 213 214 215 214 214 215 212 211 212 215 217
266 239 223 217 215 210 206 205 205 207 211 208 206 213 215 211 209 208 207 210 214 215 214 212 212 214 214 216 219 220 218 214 212 212 211 210 212 210 211 215 217 218
317 255 232 218 214 212 209 209 208 206 204 201 201 210 215 213 210 209 208 209 210 212 215 215 214 215 214 216 217 217 217 215 210 209 208 207 208 209 213 216 216 215
338 265 232 221 215 214 211 208 205 202 197 195 200 209 213 213 214 213 211 211 210 210 212 213 213 214 215 217 218 215 214 213 212 212 209 207 206 206 208 212 214 216
329 273 235 228 222 218 214 209 204 200 198 198 201 207 213 213 213 212 209 209 209 208 208 210 210 211 214 219 220 217 215 214 214 213 210 208 209 207 207 210 214 217
338 283 248 238 227 218 215 212 206 201 202 204 203 206 209 208 206 205 201 200 201 202 202 204 205 203 201 203 205 207 211 214 215 211 207 208 209 206 205 206 207 209
351 297 267 254 237 221 213 210 207 203 204 207 203 202 203 202 199 197 193 192 194 195 195 195 195 192 185 178 178 184 193 201 207 208 206 205 203 197 194 194 194 194
3 339 320 293 253 227 217 211 207 202 200 200 196 192 193 193 192 191 189 187 188 188 187 187 189 189 184 178 174 176 180 183 189 195 197 193 188 184 183 180 179 178
15 7 358 348 302 230 218 212 203 192 188 187 182 176 177 180 181 183 183 180 178 177 177 177 181 185 187 186 186 186 182 175 173 176 178 175 173 172 171 168 165 165
24 25 23 19 14 236 207 200 191 182 179 179 172 163 161 162 162 166 168 166 166 166 166 165 167 175 181 183 188 193 190 178 169 165 163 160 157 157 156 154 154 155
30 37 42 42 42 52 77 115 151 163 168 170 164 152 142 136 133 137 144 148 150 152 154 152 150 158 168 172 179 189 192 184 174 164 156 151 146 144 144 144 143 145
36 43 50 53 51 51 59 75 94 118 140 150 150 141 128 116 107 100 107 122 127 128 136 141 139 144 157 164 167 176 183 183 178 166 152 145 141 138 138 138 136 136
39 46 53 60 60 55 56 65 73 84 101 119 129 129 122 113 103 88 81 90 101 107 115 126 129 135 147 155 159 164 166 168 170 164 150 141 139 137 134 133 132 131
42 46 53 61 69 69 64 61 63 68 78 88 103 115 117 113 106 94 79 73 78 86 92 101 111 120 132 141 146 150 151 151 153 153 148 143 141 138 133 131 129 128
Height
788 787 789 791 791 791 791 790 790 791 792 793 795 796 796 797 799 801 802 804 806 807 809 811 812 813 814 815 816 817 817 818 819 820 821 823 824 826 827 829 831 833
787 788 789 790 789 791 792 791 790 790 791 793 794 795 796 797 798 799 801 803 804 806 808 810 811 812 813 814 815 816 817 817 818 819 820 821 823 824 826 828 830 832
783 787 789 788 787 788 790 791 790 790 790 792 794 795 796 797 798 798 799 801 802 805 806 808 810 810 812 813 814 815 816 817 817 818 819 820 822 823 825 827 829 830
781 785 787 786 785 785 787 789 790 789 790 792 793 795 796 797 798 798 799 800 801 803 805 807 808 809 811 812 813 815 815 816 817 817 819 820 821 822 824 826 828 829
778 782 784 783 782 782 783 785 788 789 789 791 793 795 796 797 798 798 799 799 800 802 804 805 807 808 810 811 812 814 814 815 816 817 818 819 820 821 823 824 826 828
774 778 780 780 778 779 782 783 785 787 789 791 793 795 796 796 798 798 798 799 800 801 803 804 806 807 808 810 811 812 813 814 815 816 817 818 819 820 822 823 825 826
775 776 778 778 777 778 781 782 784 786 788 791 793 795 796 796 797 798 798 799 800 801 803 804 805 806 808 809 810 811 812 813 814 815 816 817 818 819 820 822 823 825
777 777 776 777 776 777 779 781 783 784 787 790 793 794 795 796 796 797 797 798 800 801 803 803 804 806 807 808 809 810 811 812 813 814 815 815 816 817 819 820 822 824
778 778 776 776 776 776 777 779 782 784 786 790 793 793 794 795 796 796 797 798 799 801 802 803 804 805 806 807 807 808 809 810 812 812 813 814 815 816 818 819 821 822
778 778 777 775 775 774 775 777 781 784 786 790 795 795 794 795 796 796 797 797 798 800 801 802 803 804 805 806 806 807 808 809 810 811 812 813 814 815 817 818 819 821
777 779 777 775 774 773 774 776 779 783 785 789 795 797 795 795 796 796 797 797 797 799 800 801 802 803 804 804 805 806 807 808 809 810 811 812 813 814 815 817 818 820
776 778 777 776 774 773 774 775 778 781 783 785 791 796 796 794 795 796 796 796 797 798 799 800 801 802 803 803 804 805 806 807 808 809 810 811 812 813 814 815 817 818
774 776 776 776 775 773 773 775 777 780 782 782 786 792 794 794 794 795 795 796 797 797 798 799 800 801 802 802 803 804 805 806 806 807 808 809 811 812 813 815 816 817
774 775 776 776 776 775 774 775 776 779 780 781 784 789 792 792 793 794 794 795 796 797 798 798 798 799 800 801 802 803 804 805 805 806 807 808 809 811 812 814 815 816
775 775 775 776 776 776 775 775 776 778 780 781 783 787 790 791 792 793 793 793 794 796 797 798 798 798 798 799 801 801 802 803 804 805 806 807 809 810 811 813 814 816
776 775 775 776 777 776 775 775 776 779 780 781 782 785 788 789 791 791 791 792 793 794 796 797 798 798 798 798 799 800 801 802 803 804 805 806 808 809 810 812 813 815
775 774 775 775 776 776 776 776 777 778 780 780 781 784 787 788 789 790 790 790 791 792 794 796 797 798 797 797 798 799 800 801 802 803 804 806 807 808 809 811 812 814
775 774 774 775 775 775 775 776 777 778 779 780 780 782 786 788 789 789 789 789 790 791 792 794 796 797 797 797 797 798 799 800 801 802 803 804 806 807 808 810 811 813
775 773 772 773 773 773 773 774 776 777 778 780 780 781 784 786 788 789 789 789 790 790 792 793 795 796 797 797 797 797 798 799 800 801 802 803 805 806 808 809 810 812
777 773 771 771 772 772 772 773 775 775 776 778 779 780 782 785 786 788 789 789 790 790 791 793 794 796 796 797 798 798 799 799 800 801 802 803 805 806 807 809 810 812
780 777 774 772 772 772 772 773 774 775 775 776 778 779 781 783 785 787 788 789 790 791 792 793 794 796 796 797 798 798 799 800 801 801 803 804 805 807 808 809 811 812
784 781 778 775 774 773 772 773 774 774 774 775 777 779 781 783 785 787 788 789 791 791 792 793 794 796 797 797 798 799 799 800 801 802 803 805 806 808 809 810 812 813
789 785 781 779 777 776 775 775 776 776 775 775 776 778 781 783 786 788 789 790 792 792 792 793 794 795 797 797 798 799 799 800 801 802 803 805 807 809 810 812 813 815
792 789 785 783 781 780 780 779 780 781 779 777 775 776 780 784 787 790 791 791 792 794 794 794 794 796 797 797 799 799 799 799 800 801 803 805 807 809 811 813 814 816
796 792 789 787 785 785 785 784 785 785 784 782 778 776 779 784 788 792 794 794 794 795 795 795 795 796 797 798 799 799 800 800 800 801 803 805 807 809 811 813 815 817
800 796 793 791 789 789 789 789 790 790 789 787 785 781 780 784 789 794 797 798 797 797 797 797 797 798 799 799 800 800 801 801 801 802 804 806 808 809 811 814 815 817